sat.trackr.live / text

‹ back to catalog

STARLINK-11227 [DTC]

NORAD 60303 · 2024-133C

PAYLOAD ACTIVE UNKNOWN

§ Identity

Operator
Country
US
Launch date
2024-07-28
Launch site
AFWTR
Launch vehicle
Mass (kg)
RCS (m²)

Purposes: comms

External: N2YO · Heavens-Above · Gunter

§ Orbital elements

Epoch: 2026-05-25T05:25:52.612896Z

Period
91.74 min
Inclination
53.1603°
Eccentricity
0.0001201
Mean motion
15.69698042 rev/d
Perigee alt
359.0 km
Apogee alt
360.6 km
Semi-major
6,737.9 km
B*
7.6339e-6
RAAN
129.0301°
Arg perigee
101.4146°
Mean anomaly
258.7007°
Rev number
10,583

§ Raw data

STARLINK-11227 [DTC]1 60303U 24133C   26145.22630339  .00000336  00000+0  76339-5 0  99952 60303  53.1603 129.0301 0001201 101.4146 258.7007 15.69698042105835

JSON: /api/v1/satellites/60303 · /tle

For live sub-satellite position, see the globe view (requires WebGL).

§ Visibility from observer

Set your observer location to see the next 7 days of passes ≥ 10°. The values pass through the URL so the page stays shareable.

No JS? Fill the form by hand. The geolocation button needs JavaScript.